Hourly Weather Roundup
Issued by NWS Central Illinois

Home | Current Version | Previous Version | Graphics & Text | Print | Product List | Glossary On
Versions: 1 2 3 4 5 6 7 8 9 10 11 12 13 14 15 16 17 18 19 20 21 22 23 24 25 26 27 28 29 30 31 32 33 34 35 36 37 38 39 40 41 42 43 44 45 46 47 48 49 50
000
NZUS43 KILX 301010
HWRILX

AREA WEATHER ROUNDUP
NATIONAL WEATHER SERVICE, LINCOLN IL
500 AM CDT SAT APR 30 2016


CITY           SKY/WX    TMP DP  RH WIND       PRES   REMARKS
BLOOMINGTON    CLOUDY    47  47 100 E12       29.98S FOG
CHAMPAIGN      LGT RAIN  51  49  92 E13       29.97F FOG
DANVILLE       LGT RAIN  50  47  88 E9        29.96F
DECATUR        LGT RAIN  51  49  92 E15       29.93F FOG
EFFINGHAM      HVY RAIN  55  55 100 E10       29.93F
FLORA          DRIZZLE   60  57  92 NE5       29.92S
GALESBURG      CLOUDY    46  44  91 E15       29.94F FOG
JACKSONVILLE   LGT RAIN  51  49  93 E13       29.89F
LACON          RAIN      45  42  90 NE7       29.99S
LAWRENCEVILLE  CLOUDY    58  54  86 E10       29.93S
LITCHFIELD     LGT RAIN  54  52  93 E14       29.90S
$$


CITY           SKY/WX    TMP DP  RH WIND       PRES   REMARKS
LINCOLN        HVY RAIN  50  49  96 E9        29.94S
MACOMB         LGT RAIN  46  46  97 E18       29.94F
MATTOON        RAIN      53  51  93 E7        29.94S FOG
MT CARMEL AP   NOT AVBL
OLNEY-NOBLE AP LGT RAIN  57  55  94 E8        29.92F
PARIS          RAIN      53  51  92 E9        29.98R
PEORIA         CLOUDY    47  44  90 E16       29.96S FOG
PONTIAC        CLOUDY    46  45  95 NE12      30.01S FOG
RANTOUL        DRIZZLE   51  49  92 E9        29.98F
ROBINSON       CLOUDY    56  53  91 NE6       29.96R
SPRINGFIELD    LGT RAIN  52  50  93 E14       29.90F FOG
TAYLORVILLE    DRIZZLE   52  52 100 E13       29.92S
$$

...REGIONAL REPORTS...


CITY           SKY/WX    TMP DP  RH WIND       PRES   REMARKS
CHICAGO O`HARE CLOUDY    45  41  86 NE9       30.05F
KANKAKEE       CLOUDY    46  43  90 NE9       30.03S
MOLINE         CLOUDY    46  41  82 E13       29.97F HAZE
MOUNT STERLING CLOUDY    48  46  93 E14       29.88S FOG
MOUNT VERNON   CLOUDY    57  52  82 NE5       29.91R
PITTSFIELD     LGT RAIN  53  52  97 E9G16     29.88S
QUINCY         LGT RAIN  50  48  93 E13       29.85F FOG
ROCKFORD       CLOUDY    45  38  76 E8        30.06F
$$


CITY           SKY/WX    TMP DP  RH WIND       PRES   REMARKS
BURLINGTON     LGT RAIN  46  46 100 E15G23    29.90F FOG
CEDAR RAPIDS   CLOUDY    44  42  93 E17       29.95F
DES MOINES     RAIN      45  42  89 E15G25    29.85F FOG
KIRKSVILLE     LGT RAIN  49  46  90 E17G25    29.79F FOG
OTTUMWA        LGT RAIN  45  44  97 E21G28    29.87F FOG
ST LOUIS       LGT RAIN  59  56  89 E15       29.84F FOG
$$


CITY           SKY/WX    TMP DP  RH WIND       PRES   REMARKS
TERRE HAUTE    LGT RAIN  54  50  86 E7        29.97R FOG
EVANSVILLE     CLOUDY    61  53  75 E6        29.90F
INDIANAPOLIS   CLOUDY    53  46  77 E13       29.99F
LAFAYETTE      CLOUDY    50  45  83 E13       30.02R
MADISON        MOCLDY    42  33  70 E9        30.08F
MILWAUKEE      CLOUDY    41  35  79 NE7       30.10R
$$






USA.gov is the U.S. government's official web portal to all federal, state and local government web resources and services.